Temperature
-3 -3 -4 -4 -4 -4 -4 -4 -4 -4 -4 -4 -4 -4 -4 -4 -4 -4 -4 -4 -4 -3 -3 -3 -3 -3 -2 -2 -2 -2 -1 -1 -1 -1 -0 0 0 0 1 1 1 2 2
-4 -4 -4 -4 -4 -5 -5 -5 -5 -5 -5 -5 -5 -5 -5 -5 -4 -4 -4 -4 -4 -4 -4 -4 -3 -3 -3 -3 -3 -2 -2 -2 -1 -1 -1 -1 -0 -0 0 0 1 1 1
-4 -5 -5 -5 -5 -5 -5 -5 -5 -5 -5 -5 -5 -5 -5 -5 -5 -5 -5 -5 -5 -4 -4 -4 -4 -4 -4 -3 -3 -3 -3 -2 -2 -2 -1 -1 -1 -1 -1 -0 -0 0 0
-5 -5 -5 -5 -6 -6 -6 -6 -6 -6 -6 -6 -6 -6 -6 -6 -6 -5 -6 -6 -5 -5 -5 -5 -4 -4 -4 -4 -4 -3 -3 -3 -3 -2 -2 -2 -1 -1 -1 -1 -1 -1 -0
-6 -6 -6 -6 -6 -6 -6 -6 -6 -6 -6 -6 -6 -6 -6 -6 -6 -6 -6 -6 -6 -6 -5 -5 -5 -5 -4 -4 -4 -4 -4 -3 -3 -3 -3 -2 -2 -2 -1 -1 -1 -1 -1
-6 -6 -7 -7 -7 -7 -7 -7 -7 -7 -7 -7 -7 -7 -7 -7 -7 -7 -6 -6 -6 -6 -6 -5 -5 -5 -5 -4 -4 -4 -4 -4 -4 -4 -3 -3 -2 -2 -2 -2 -2 -2 -2
-7 -7 -7 -7 -7 -8 -8 -8 -8 -8 -7 -7 -7 -7 -7 -7 -7 -7 -7 -7 -6 -6 -6 -6 -6 -5 -5 -5 -5 -5 -4 -4 -4 -4 -4 -3 -3 -3 -3 -3 -2 -2 -2
-7 -7 -8 -8 -8 -8 -8 -8 -8 -8 -8 -8 -8 -8 -8 -8 -8 -7 -7 -7 -7 -7 -7 -6 -6 -6 -6 -6 -6 -5 -5 -4 -4 -4 -4 -4 -3 -3 -3 -3 -3 -3 -3
-8 -8 -8 -8 -8 -9 -9 -9 -9 -9 -9 -8 -9 -9 -8 -8 -8 -8 -8 -7 -7 -7 -7 -7 -7 -6 -6 -6 -6 -6 -5 -5 -5 -4 -4 -4 -4 -4 -4 -4 -4 -3 -3
-8 -9 -9 -9 -9 -9 -9 -9 -9 -9 -9 -9 -9 -9 -9 -9 -8 -8 -8 -8 -8 -7 -7 -7 -7 -7 -6 -6 -6 -6 -6 -5 -5 -5 -5 -5 -4 -4 -4 -4 -4 -4 -4
-9 -9 -9 -9 -9 -9 -9 -9 -9 -9 -9 -9 -9 -9 -9 -9 -9 -9 -9 -9 -8 -8 -8 -7 -7 -7 -7 -6 -6 -6 -6 -5 -5 -5 -5 -5 -5 -5 -5 -4 -4 -4 -4
-9 -9 -9 -9 -9 -10 -10 -10 -10 -10 -10 -10 -10 -10 -10 -10 -10 -9 -9 -9 -9 -8 -8 -8 -8 -7 -7 -7 -6 -6 -6 -6 -6 -6 -5 -5 -5 -5 -5 -5 -5 -5 -5
-9 -9 -9 -10 -10 -10 -10 -10 -10 -10 -10 -10 -11 -10 -10 -10 -10 -10 -10 -9 -9 -9 -9 -8 -8 -7 -7 -7 -7 -7 -7 -7 -6 -6 -6 -6 -6 -6 -6 -5 -5 -5 -5
-10 -10 -10 -10 -10 -10 -10 -10 -11 -11 -11 -11 -11 -11 -11 -11 -10 -10 -10 -10 -9 -9 -9 -9 -8 -8 -8 -8 -8 -8 -7 -7 -7 -7 -7 -7 -6 -6 -6 -6 -6 -6 -6
-10 -10 -10 -10 -11 -11 -11 -11 -11 -11 -11 -11 -11 -11 -11 -11 -11 -10 -10 -10 -10 -10 -9 -9 -9 -9 -9 -9 -8 -8 -8 -8 -8 -8 -7 -7 -7 -7 -7 -7 -7 -7 -7
-10 -11 -11 -11 -11 -11 -11 -11 -11 -11 -11 -11 -11 -11 -11 -11 -11 -10 -10 -10 -10 -10 -10 -10 -10 -10 -9 -9 -9 -9 -9 -9 -8 -8 -8 -8 -8 -8 -7 -7 -7 -7 -7
-11 -11 -11 -11 -11 -11 -12 -12 -11 -11 -11 -11 -11 -11 -11 -11 -11 -11 -11 -10 -10 -10 -10 -11 -11 -10 -10 -10 -10 -10 -9 -9 -9 -9 -9 -8 -8 -8 -8 -8 -8 -8 -8
-11 -11 -12 -12 -12 -12 -12 -12 -12 -12 -12 -12 -11 -11 -11 -11 -11 -11 -11 -11 -11 -11 -11 -11 -11 -11 -11 -11 -10 -10 -10 -10 -10 -10 -9 -9 -9 -9 -9 -9 -8 -8 -8
-12 -12 -12 -12 -12 -12 -12 -12 -12 -12 -12 -12 -12 -11 -12 -12 -11 -12 -12 -12 -12 -12 -12 -12 -11 -11 -11 -11 -11 -11 -11 -11 -10 -10 -10 -10 -9 -9 -9 -9 -9 -9 -9
-12 -12 -12 -12 -12 -12 -12 -12 -12 -12 -12 -12 -12 -12 -12 -12 -12 -12 -12 -12 -12 -12 -12 -12 -12 -12 -12 -11 -11 -11 -11 -11 -11 -11 -11 -10 -10 -10 -9 -9 -9 -9 -9
-12 -12 -12 -12 -12 -13 -13 -13 -13 -13 -13 -13 -12 -12 -13 -13 -13 -12 -12 -12 -12 -13 -12 -12 -12 -12 -12 -12 -12 -11 -11 -11 -11 -11 -11 -11 -10 -10 -10 -10 -10 -10 -9
-13 -13 -13 -13 -13 -13 -13 -13 -13 -13 -13 -13 -13 -13 -13 -13 -13 -13 -13 -13 -13 -13 -13 -12 -12 -12 -12 -12 -12 -12 -12 -11 -11 -11 -11 -11 -11 -11 -10 -10 -10 -10 -10
-13 -13 -13 -13 -13 -13 -13 -13 -13 -13 -13 -13 -13 -13 -13 -13 -13 -13 -13 -13 -13 -13 -13 -13 -12 -12 -12 -12 -12 -12 -12 -11 -11 -11 -11 -11 -11 -11 -11 -11 -10 -10 -10
-13 -13 -13 -13 -13 -13 -13 -13 -13 -13 -13 -13 -13 -13 -13 -13 -13 -13 -13 -13 -13 -13 -13 -13 -13 -12 -12 -12 -12 -12 -12 -11 -11 -11 -11 -11 -11 -11 -11 -11 -11 -10 -10
-13 -13 -13 -13 -14 -14 -14 -14 -14 -14 -14 -14 -14 -13 -13 -13 -13 -13 -13 -13 -13 -13 -13 -13 -13 -12 -12 -12 -12 -12 -12 -11 -11 -11 -11 -11 -11 -11 -11 -11 -11 -11 -10
-13 -13 -14 -14 -14 -14 -14 -14 -14 -14 -14 -14 -14 -14 -13 -13 -13 -13 -13 -13 -13 -13 -13 -13 -13 -13 -12 -12 -12 -12 -12 -12 -11 -11 -11 -12 -12 -11 -11 -11 -11 -11 -10
Wind_Speed
4 5 5 6 6 7 6 7 7 7 8 8 8 8 8 9 9 8 8 9 9 9 8 9 9 9 7 6 7 7 8 8 10 9 7 7 9 9 8 8 9 9 9
4 5 6 6 6 7 7 7 8 8 8 8 9 8 8 9 9 9 9 9 9 10 10 10 10 8 9 8 7 8 8 9 10 11 9 8 9 9 8 8 7 8 8
5 5 6 6 7 7 7 8 8 8 8 8 8 9 9 9 9 9 9 10 10 10 11 11 11 10 10 9 9 9 8 8 9 9 9 8 7 7 8 7 8 7 7
5 6 6 7 7 7 8 8 8 8 9 9 9 9 9 10 9 10 10 10 11 11 11 11 11 11 11 11 9 10 9 9 9 8 8 8 7 7 7 6 6 6 6
6 6 7 7 7 7 8 8 8 8 9 9 9 9 10 9 9 10 11 11 11 12 12 11 11 12 13 12 10 10 9 8 8 8 8 8 8 7 7 6 7 6 6
6 7 6 6 7 7 8 8 9 9 9 9 9 10 10 9 12 15 14 11 11 12 12 12 12 12 13 15 16 15 13 11 10 9 9 9 9 9 7 7 6 7 7
6 6 6 6 7 8 8 9 9 9 9 9 10 10 10 12 15 16 16 12 12 11 11 11 10 10 13 12 13 15 15 16 15 12 12 12 11 9 9 9 9 8 8
6 6 6 7 8 8 8 9 9 9 9 9 10 10 11 12 15 16 17 13 11 11 11 12 12 12 11 12 11 11 12 13 14 13 12 12 11 10 10 9 9 8 8
6 7 7 7 8 8 9 9 9 9 9 9 10 10 11 12 15 16 15 10 10 11 11 11 12 12 14 15 12 12 12 11 12 14 15 14 14 14 11 7 8 7 8
7 8 8 8 8 8 9 9 8 8 9 9 10 10 11 11 14 15 15 9 10 10 10 11 13 13 14 15 11 11 12 11 10 9 11 12 12 12 13 10 9 8 7
7 8 8 8 8 9 9 8 8 8 9 9 10 9 10 11 13 14 15 9 9 10 9 9 9 13 14 14 12 10 11 10 9 9 8 8 8 8 8 8 8 8 8
7 7 8 8 8 7 8 8 7 7 8 8 8 9 8 9 11 12 15 14 13 10 10 9 9 13 13 13 11 10 11 10 7 7 7 7 7 7 6 6 6 7 7
7 7 8 8 7 7 7 7 7 6 6 7 7 8 8 8 9 13 14 15 15 10 9 12 13 13 12 9 9 9 7 6 6 6 6 6 6 6 5 5 5 5 5
7 7 7 7 7 7 6 6 6 6 6 7 7 8 8 8 8 8 9 9 11 10 9 10 11 10 8 7 6 5 4 5 5 6 6 5 4 5 5 5 4 4 5
6 6 6 6 6 6 6 6 7 6 7 8 7 7 8 8 9 13 10 8 8 8 8 6 6 5 4 4 4 4 4 4 5 5 5 5 5 5 5 4 4 5 5
5 6 5 5 5 5 6 6 8 9 11 11 11 11 9 11 14 14 13 13 12 12 8 6 5 5 4 4 4 4 4 5 5 5 5 5 5 5 5 4 4 5 6
5 6 5 5 5 5 5 6 7 8 9 10 11 12 12 13 13 13 13 12 11 9 6 5 5 5 5 5 5 5 5 5 5 5 5 5 5 5 5 5 5 5 6
5 6 5 5 5 5 5 6 6 7 7 7 8 11 12 13 13 12 11 9 6 6 5 5 6 6 5 5 5 5 5 5 5 5 5 5 5 5 5 6 6 6 6
5 4 5 5 5 5 5 5 6 6 6 7 7 8 11 11 11 10 9 5 5 6 6 6 6 6 6 6 5 5 5 5 5 5 5 5 5 5 6 6 6 7 7
4 6 6 5 5 5 5 5 5 5 6 6 7 7 8 8 7 7 6 5 5 6 6 6 6 6 6 6 6 5 5 5 5 5 5 5 5 5 5 6 6 6 6
4 4 6 5 4 5 5 5 5 5 6 6 6 8 10 7 6 7 6 6 6 6 6 6 6 6 6 6 6 6 6 6 5 5 5 5 5 5 5 5 5 5 5
3 4 4 4 4 5 5 5 5 5 6 6 6 7 10 6 6 6 6 7 7 6 6 6 6 6 6 6 6 6 6 6 6 5 5 5 5 5 5 5 5 5 5
3 4 4 4 4 6 6 5 5 5 6 6 6 6 6 6 6 7 7 7 7 7 7 7 7 7 7 7 7 7 7 7 6 6 5 5 5 5 4 5 5 5 5
3 4 4 4 5 5 5 5 5 5 6 6 6 6 6 6 7 7 7 7 7 7 7 7 7 9 10 9 8 8 8 8 8 6 7 6 5 5 4 4 5 5 4
3 4 4 4 4 5 5 5 6 6 6 6 6 6 6 7 7 7 7 7 8 8 9 9 8 8 10 11 10 10 11 11 10 7 6 4 5 5 4 5 4 4 3
3 4 4 4 4 5 5 5 6 6 6 6 6 6 7 7 7 7 7 7 7 7 8 8 9 11 12 11 11 12 12 12 10 9 5 4 4 4 4 3 4 3 3
Wind_Direction
302 306 309 309 312 307 303 305 308 308 308 307 305 303 304 303 303 297 294 294 290 288 283 279 277 276 272 269 267 266 262 256 261 268 268 265 262 265 268 266 265 262 254
297 301 304 306 307 304 303 305 306 306 306 305 304 301 301 301 302 298 293 291 288 287 286 282 277 275 270 269 266 265 265 262 258 263 265 263 261 259 261 261 267 263 255
297 297 299 301 303 302 302 303 303 304 304 304 303 301 300 299 298 296 290 287 285 284 282 281 278 275 272 269 266 265 266 267 264 258 260 261 262 255 258 261 262 261 258
297 293 292 295 298 298 300 300 300 301 301 302 301 300 299 297 294 293 289 286 283 281 279 277 275 272 269 267 265 262 261 263 262 257 255 256 256 254 250 252 259 260 260
297 287 286 291 293 295 298 299 300 300 300 300 299 298 297 296 291 293 291 286 284 282 279 276 273 273 272 268 263 260 257 255 258 256 253 255 252 246 245 249 254 263 267
293 284 283 288 291 293 295 297 298 298 299 299 297 297 296 294 296 298 296 290 287 283 282 281 278 274 274 273 268 265 260 256 255 256 254 252 254 253 250 244 246 255 263
292 286 282 286 289 292 295 295 296 297 298 297 296 295 295 295 299 300 300 297 290 285 283 282 280 277 276 272 270 266 262 257 253 254 256 253 252 251 250 250 247 252 258
296 297 293 290 290 293 294 294 296 297 296 296 296 296 296 296 300 302 304 300 291 285 282 279 278 278 275 273 271 266 262 257 252 251 254 255 255 253 249 250 257 262 266
297 300 300 292 290 292 292 293 294 295 293 295 296 296 296 299 302 303 305 298 293 290 285 281 278 277 277 274 270 266 265 262 259 253 254 257 257 257 251 248 244 245 255
298 298 297 295 292 291 289 289 290 290 291 295 295 295 295 296 301 305 306 299 295 293 289 285 281 279 277 273 267 263 262 263 262 260 253 254 253 250 243 237 238 241 252
298 297 297 296 293 290 290 288 288 289 292 293 293 293 293 296 302 305 307 303 296 294 292 291 287 288 285 279 273 266 264 268 264 259 256 254 252 249 245 241 239 239 243
300 298 299 298 296 294 293 293 290 289 291 293 296 299 299 300 302 304 307 304 302 294 291 291 290 292 291 286 280 276 274 273 264 260 253 248 249 251 252 253 252 251 249
302 301 301 300 297 295 293 293 295 292 291 295 298 301 305 306 306 308 308 306 305 300 293 295 296 295 294 288 281 281 276 267 259 257 253 252 254 255 255 256 259 257 260
300 301 301 302 302 301 296 293 294 296 296 295 299 303 306 308 309 313 312 309 308 304 301 301 301 296 291 287 284 279 272 263 258 258 260 260 261 255 250 248 251 249 256
299 298 301 302 304 304 300 295 293 290 295 305 306 305 306 306 313 320 320 315 314 309 308 302 301 298 291 291 288 282 278 274 269 265 260 257 255 253 253 252 252 252 253
300 302 302 304 305 306 305 306 301 301 305 307 308 310 309 310 317 321 323 324 326 326 318 305 302 301 295 292 290 287 283 278 276 270 261 256 254 254 255 256 251 247 246
297 299 298 300 302 303 304 306 310 313 312 311 312 316 319 320 323 326 328 328 331 334 324 314 311 306 302 298 294 288 285 286 284 273 265 260 257 255 254 251 247 246 249
300 299 299 296 298 299 300 301 303 307 311 314 317 319 326 328 327 330 334 335 331 333 322 315 313 313 308 301 297 295 292 289 284 279 275 268 259 254 253 249 245 245 248
302 305 306 304 301 299 300 299 300 301 303 308 315 322 331 331 329 333 340 332 324 322 319 316 313 311 309 305 299 294 291 288 287 284 279 274 267 259 253 250 250 247 248
299 309 314 310 307 307 305 301 301 303 306 309 314 321 329 328 328 331 332 324 318 315 314 311 309 308 305 302 300 295 290 287 286 283 279 276 272 264 257 253 250 251 250
303 309 314 312 308 306 304 303 300 300 303 307 309 313 322 322 320 321 321 320 317 313 311 308 307 306 304 301 299 296 292 287 285 283 279 276 274 271 266 260 256 252 250
297 302 306 308 309 309 309 306 302 302 305 306 309 313 322 323 318 316 315 315 314 312 308 306 303 303 302 302 299 296 291 286 285 283 280 280 279 275 272 265 258 254 248
293 300 305 307 308 310 313 312 308 304 304 305 308 312 317 318 317 316 315 315 314 312 310 308 306 304 303 302 298 292 287 283 281 279 280 280 277 275 273 268 263 258 251
296 300 302 304 306 306 307 309 309 307 307 308 311 312 313 313 313 313 314 313 313 310 309 307 302 303 305 306 301 298 292 287 285 279 275 272 274 276 276 270 262 255 247
296 297 298 298 299 301 304 306 309 309 310 311 311 311 311 312 312 313 313 313 313 313 313 312 306 306 308 309 307 304 305 305 298 288 277 269 270 272 272 270 259 251 239
294 292 291 292 294 297 300 303 306 307 306 308 308 309 310 310 311 312 313 314 315 315 315 314 314 314 314 314 312 312 313 312 309 302 287 268 269 271 273 269 262 245 232
Height
1508 1507 1505 1503 1501 1499 1497 1495 1492 1490 1488 1486 1484 1482 1480 1478 1477 1475 1474 1472 1471 1469 1469 1468 1467 1466 1465 1465 1465 1465 1465 1465 1464 1463 1464 1464 1464 1464 1464 1464 1464 1464 1465
1504 1503 1501 1499 1497 1495 1493 1491 1489 1486 1484 1482 1480 1478 1476 1474 1472 1471 1469 1467 1466 1464 1463 1462 1461 1461 1460 1460 1460 1459 1459 1459 1459 1457 1457 1458 1458 1458 1458 1458 1459 1459 1459
1500 1499 1497 1495 1493 1491 1489 1487 1485 1482 1480 1478 1475 1473 1471 1470 1468 1466 1464 1462 1461 1459 1458 1457 1456 1455 1454 1454 1454 1453 1453 1453 1453 1452 1451 1452 1452 1453 1453 1453 1453 1453 1453
1496 1494 1492 1491 1489 1487 1485 1483 1480 1478 1475 1473 1471 1469 1467 1465 1463 1461 1459 1457 1456 1454 1453 1452 1450 1450 1449 1448 1448 1447 1447 1447 1447 1446 1445 1446 1446 1447 1447 1447 1447 1447 1447
1491 1490 1488 1486 1485 1482 1480 1478 1476 1473 1471 1468 1466 1464 1462 1460 1458 1456 1454 1452 1450 1448 1447 1446 1445 1444 1443 1442 1442 1441 1441 1441 1441 1440 1439 1440 1440 1441 1441 1441 1441 1441 1441
1487 1485 1484 1482 1480 1478 1476 1473 1471 1469 1466 1464 1461 1459 1457 1455 1453 1451 1450 1447 1445 1443 1441 1439 1438 1437 1436 1435 1435 1435 1435 1435 1434 1434 1433 1433 1433 1435 1435 1435 1435 1436 1435
1482 1481 1479 1477 1475 1473 1471 1468 1466 1464 1461 1459 1456 1454 1452 1450 1448 1446 1444 1442 1439 1437 1435 1433 1432 1430 1430 1429 1428 1427 1427 1427 1428 1428 1427 1427 1428 1428 1429 1429 1429 1429 1429
1478 1476 1475 1473 1470 1468 1466 1464 1461 1459 1456 1454 1451 1449 1446 1444 1442 1441 1439 1436 1434 1431 1429 1427 1426 1424 1423 1422 1421 1420 1420 1420 1421 1421 1421 1421 1422 1422 1423 1424 1423 1423 1423
1474 1472 1470 1468 1466 1464 1461 1459 1457 1454 1452 1449 1447 1444 1441 1439 1437 1435 1433 1431 1428 1425 1423 1421 1420 1418 1416 1416 1415 1414 1413 1413 1414 1414 1414 1414 1415 1416 1417 1418 1417 1417 1416
1469 1467 1465 1463 1461 1459 1457 1455 1452 1450 1447 1445 1442 1440 1437 1434 1432 1430 1428 1425 1422 1420 1417 1415 1413 1412 1410 1409 1409 1408 1407 1406 1407 1407 1407 1407 1408 1408 1409 1410 1410 1411 1409
1466 1463 1461 1459 1457 1455 1452 1450 1448 1445 1443 1440 1437 1435 1432 1430 1427 1425 1423 1421 1418 1414 1411 1409 1407 1405 1404 1403 1402 1401 1400 1401 1400 1400 1400 1400 1401 1401 1402 1402 1403 1404 1403
1462 1459 1457 1455 1453 1450 1448 1446 1443 1441 1438 1436 1433 1430 1428 1425 1423 1420 1418 1416 1413 1410 1406 1403 1401 1399 1397 1396 1395 1395 1395 1395 1394 1394 1393 1393 1394 1394 1395 1395 1396 1396 1396
1458 1455 1453 1451 1449 1447 1444 1442 1439 1437 1435 1432 1429 1426 1423 1421 1418 1416 1413 1410 1407 1404 1401 1398 1395 1393 1392 1390 1389 1389 1388 1388 1388 1388 1387 1387 1388 1388 1388 1388 1388 1389 1389
1454 1451 1449 1447 1445 1443 1441 1439 1436 1434 1431 1429 1426 1423 1420 1417 1415 1412 1408 1405 1402 1399 1396 1393 1390 1388 1386 1385 1384 1383 1383 1383 1382 1382 1382 1382 1382 1382 1382 1382 1382 1382 1382
1450 1448 1446 1444 1442 1439 1437 1435 1433 1431 1429 1425 1422 1420 1417 1414 1411 1409 1405 1402 1398 1395 1392 1388 1386 1383 1381 1380 1379 1378 1378 1377 1377 1377 1377 1376 1376 1376 1376 1376 1376 1376 1376
1446 1444 1443 1440 1438 1436 1433 1431 1429 1427 1424 1422 1420 1417 1414 1411 1408 1405 1401 1398 1394 1391 1388 1385 1382 1380 1378 1376 1375 1374 1373 1372 1372 1371 1371 1370 1370 1370 1370 1370 1370 1371 1370
1443 1441 1439 1437 1435 1433 1431 1428 1425 1423 1421 1418 1416 1413 1410 1407 1404 1401 1398 1394 1391 1388 1385 1382 1379 1377 1375 1373 1372 1370 1369 1368 1367 1366 1365 1365 1365 1365 1364 1364 1364 1364 1364
1441 1439 1437 1435 1433 1430 1428 1426 1423 1420 1417 1414 1412 1409 1406 1403 1401 1397 1394 1391 1387 1385 1382 1380 1377 1374 1372 1370 1369 1367 1365 1364 1363 1361 1361 1360 1360 1359 1359 1358 1358 1358 1359
1438 1436 1434 1432 1430 1428 1425 1423 1421 1418 1415 1412 1409 1406 1403 1400 1398 1395 1391 1388 1385 1382 1380 1377 1375 1372 1370 1368 1366 1364 1362 1360 1359 1357 1356 1355 1354 1354 1354 1353 1353 1353 1353
1435 1433 1431 1429 1427 1425 1423 1420 1418 1415 1413 1410 1407 1403 1401 1398 1394 1392 1389 1386 1383 1381 1378 1375 1373 1370 1368 1365 1363 1361 1359 1357 1355 1353 1352 1351 1349 1349 1349 1348 1348 1348 1348
1432 1431 1429 1427 1424 1422 1420 1418 1415 1413 1410 1407 1405 1402 1399 1396 1393 1390 1387 1384 1381 1378 1376 1373 1370 1367 1365 1363 1360 1358 1356 1353 1351 1350 1348 1347 1345 1344 1343 1343 1343 1343 1343
1430 1428 1426 1424 1422 1420 1417 1415 1413 1410 1408 1405 1402 1399 1397 1394 1391 1388 1385 1382 1379 1377 1374 1371 1368 1365 1362 1360 1357 1355 1352 1350 1348 1346 1345 1343 1342 1340 1339 1338 1338 1338 1338
1428 1426 1424 1422 1420 1418 1415 1413 1410 1408 1405 1403 1400 1397 1395 1392 1389 1386 1383 1380 1377 1374 1371 1368 1365 1362 1360 1357 1355 1352 1349 1347 1345 1343 1341 1339 1337 1336 1335 1335 1334 1334 1334
1426 1424 1422 1420 1418 1415 1413 1410 1408 1406 1403 1401 1398 1396 1393 1390 1387 1384 1381 1378 1375 1372 1369 1366 1363 1360 1357 1354 1352 1349 1347 1345 1343 1341 1338 1336 1335 1334 1332 1331 1331 1331 1331
1424 1422 1420 1418 1416 1413 1411 1408 1406 1403 1401 1398 1396 1393 1391 1388 1385 1382 1379 1376 1373 1370 1367 1363 1360 1357 1354 1351 1349 1347 1344 1342 1340 1338 1336 1334 1332 1331 1330 1329 1328 1328 1328
1421 1419 1417 1415 1413 1411 1408 1406 1403 1400 1398 1396 1393 1391 1388 1385 1382 1379 1377 1374 1371 1367 1364 1361 1358 1355 1352 1349 1347 1344 1342 1340 1338 1336 1334 1332 1330 1329 1328 1327 1326 1326 1326